sat.trackr.live / text

‹ back to catalog

GEESAT-5 06

NORAD 65555 · 2025-201F

PAYLOAD ACTIVE UNKNOWN

§ Identity

Operator
Country
PRC
Launch date
2025-09-08
Launch site
YSLA
Launch vehicle
Mass (kg)
RCS (m²)

External: N2YO · Heavens-Above · Gunter

§ Orbital elements

Epoch: 2026-05-25T04:59:45.381696Z

Period
97.03 min
Inclination
49.9897°
Eccentricity
0.0014249
Mean motion
14.84087228 rev/d
Perigee alt
606.5 km
Apogee alt
626.4 km
Semi-major
6,994.6 km
B*
1.8710e-4
RAAN
145.8958°
Arg perigee
236.1771°
Mean anomaly
123.7811°
Rev number
3,837

§ Raw data

GEESAT-5 061 65555U 25201F   26145.20816414  .00001350  00000+0  18710-3 0  99982 65555  49.9897 145.8958 0014249 236.1771 123.7811 14.84087228 38379

JSON: /api/v1/satellites/65555 · /tle

For live sub-satellite position, see the globe view (requires WebGL).

§ Visibility from observer

Set your observer location to see the next 7 days of passes ≥ 10°. The values pass through the URL so the page stays shareable.

No JS? Fill the form by hand. The geolocation button needs JavaScript.